| time (UTC) | temp F | wind direction | speed MPH | gust MPH | rain 1hr in | rain 24hr in | rain mn in | humidity % | barometer mb |
| 20260905090323 | 58 | 271 | 0.0 | 0.0 | 0.00 | 0.00 | 0.00 | 96 | 1010.3 |
| 20260905085312 | 58 | 271 | 0.0 | 0.0 | 0.00 | 0.14 | 0.00 | 96 | 1010.4 |
| 20260905084327 | 59 | 271 | 0.0 | 0.0 | 0.00 | 0.14 | 0.00 | 96 | 1010.5 |
| 20260905083343 | 59 | 271 | 0.0 | 0.0 | 0.00 | 0.14 | 0.00 | 96 | 1010.5 |
| 20260905082328 | 59 | 271 | 0.0 | 0.0 | 0.00 | 0.14 | 0.00 | 96 | 1010.4 |
| 20260905081315 | 59 | 271 | 0.0 | 0.0 | 0.00 | 0.14 | 0.00 | 96 | 1010.4 |
| 20260905080324 | 60 | 271 | 0.0 | 0.0 | 0.00 | 0.14 | 0.00 | 96 | 1010.5 |
| 20260905075314 | 60 | 271 | 0.0 | 0.0 | 0.00 | 0.73 | 0.00 | 96 | 1010.4 |
| 20260905074322 | 60 | 271 | 0.0 | 0.0 | 0.00 | 0.73 | 0.00 | 96 | 1010.3 |
| 20260905073331 | 60 | 271 | 0.0 | 0.0 | 0.00 | 0.73 | 0.00 | 96 | 1010.3 |
| 20260905072317 | 60 | 271 | 0.0 | 0.0 | 0.00 | 0.73 | 0.00 | 96 | 1010.2 |
| 20260905071352 | 60 | 271 | 0.0 | 0.0 | 0.00 | 0.73 | 0.00 | 96 | 1010.4 |
| 20260905070337 | 60 | 271 | 0.0 | 0.0 | 0.00 | 0.73 | 0.00 | 96 | 1010.5 |
| 20260905065326 | 60 | 271 | 0.0 | 0.0 | 0.00 | 0.73 | 0.00 | 96 | 1010.5 |
| 20260905064315 | 60 | 271 | 0.0 | 0.0 | 0.00 | 0.73 | 0.00 | 96 | 1010.5 |
| 20260905063331 | 61 | 271 | 0.0 | 0.0 | 0.00 | 0.73 | 0.00 | 96 | 1010.5 |
| 20260905062320 | 61 | 271 | 0.0 | 0.0 | 0.00 | 0.73 | 0.00 | 96 | 1010.7 |
| 20260905061328 | 61 | 271 | 0.0 | 0.0 | 0.00 | 0.73 | 0.00 | 96 | 1010.8 |
| 20260905060314 | 61 | 271 | 0.0 | 0.0 | 0.00 | 0.73 | 0.00 | 96 | 1010.9 |
| 20260905055330 | 61 | 271 | 0.0 | 0.0 | 0.00 | 0.73 | 0.00 | 95 | 1011.1 |
| 20260905054320 | 61 | 271 | 0.0 | 0.0 | 0.00 | 0.73 | 0.00 | 95 | 1011.1 |
| 20260905053355 | 62 | 271 | 0.0 | 0.0 | 0.00 | 0.73 | 0.00 | 96 | 1011.1 |
| 20260905052338 | 62 | 271 | 0.0 | 0.0 | 0.00 | 0.73 | 0.00 | 95 | 1011.2 |
| 20260905051325 | 62 | 271 | 0.0 | 0.0 | 0.00 | 0.73 | 0.00 | 96 | 1011.3 |
| 20260905050314 | 63 | 271 | 0.0 | 0.0 | 0.00 | 0.73 | 0.00 | 96 | 1011.4 |
| 20260905045328 | 63 | 271 | 0.0 | 0.0 | 0.00 | 0.73 | 0.00 | 96 | 1011.5 |
| 20260905044318 | 62 | 271 | 0.0 | 0.0 | 0.00 | 0.73 | 0.00 | 96 | 1011.6 |
| 20260905043329 | 63 | 271 | 0.0 | 0.0 | 0.00 | 0.73 | 0.00 | 96 | 1011.6 |
| 20260905042316 | 63 | 271 | 0.0 | 0.0 | 0.00 | 0.73 | 0.00 | 96 | 1011.4 |
| 20260905041327 | 63 | 271 | 0.0 | 0.0 | 0.00 | 0.73 | 0.00 | 96 | 1011.6 |
| 20260905040335 | 62 | 271 | 0.0 | 0.0 | 0.00 | 0.73 | 0.00 | 96 | 1011.6 |
| 20260905035336 | 62 | 271 | 0.0 | 0.0 | 0.00 | 0.73 | 0.73 | 96 | 1011.6 |
| 20260905034324 | 62 | 271 | 0.0 | 0.0 | 0.00 | 0.73 | 0.73 | 95 | 1011.6 |
| 20260905033332 | 63 | 271 | 0.0 | 0.0 | 0.00 | 0.73 | 0.73 | 95 | 1011.6 |
| 20260905032348 | 63 | 271 | 0.0 | 0.0 | 0.00 | 0.73 | 0.73 | 95 | 1011.5 |
| 20260905031314 | 63 | 271 | 0.0 | 0.0 | 0.00 | 0.73 | 0.73 | 96 | 1011.4 |
| 20260905030321 | 63 | 271 | 0.0 | 0.0 | 0.00 | 0.73 | 0.73 | 95 | 1011.6 |
| 20260905025329 | 63 | 271 | 0.0 | 0.0 | 0.00 | 0.73 | 0.73 | 95 | 1011.3 |
| 20260905024316 | 63 | 271 | 0.0 | 0.0 | 0.00 | 0.73 | 0.73 | 95 | 1011.3 |
| 20260905023324 | 63 | 271 | 0.0 | 0.0 | 0.00 | 0.73 | 0.73 | 94 | 1011.2 |
| 20260905022316 | 63 | 271 | 0.0 | 0.0 | 0.00 | 0.73 | 0.73 | 94 | 1011.3 |
| 20260905021347 | 63 | 271 | 0.0 | 0.0 | 0.00 | 0.73 | 0.73 | 94 | 1011.4 |
| 20260905020342 | 64 | 271 | 0.0 | 0.0 | 0.00 | 0.73 | 0.73 | 94 | 1011.3 |
| 20260905015314 | 64 | 271 | 0.0 | 0.0 | 0.00 | 0.73 | 0.73 | 94 | 1011.5 |
| 20260905014323 | 64 | 271 | 0.0 | 0.0 | 0.00 | 0.73 | 0.73 | 93 | 1011.5 |
| 20260905013332 | 64 | 271 | 0.0 | 0.0 | 0.00 | 0.73 | 0.73 | 93 | 1011.4 |
| 20260905012320 | 64 | 271 | 0.0 | 0.0 | 0.00 | 0.73 | 0.73 | 93 | 1011.5 |
| 20260905011335 | 65 | 271 | 0.0 | 0.0 | 0.00 | 0.73 | 0.73 | 92 | 1011.3 |
| 20260905010321 | 65 | 271 | 0.0 | 0.0 | 0.00 | 0.73 | 0.73 | 91 | 1011.4 |
| 20260905005328 | 65 | 271 | 0.0 | 0.0 | 0.00 | 0.73 | 0.73 | 91 | 1011.5 |
| 20260905004314 | 65 | 271 | 0.0 | 0.0 | 0.00 | 0.73 | 0.73 | 91 | 1011.5 |
| 20260905003323 | 66 | 271 | 0.0 | 0.0 | 0.00 | 0.73 | 0.73 | 90 | 1011.5 |
| 20260905002312 | 66 | 271 | 0.0 | 0.0 | 0.00 | 0.73 | 0.73 | 90 | 1011.4 |
| 20260905001320 | 67 | 271 | 0.0 | 0.0 | 0.00 | 0.73 | 0.73 | 90 | 1011.4 |
| 20260905000328 | 67 | 271 | 0.0 | 0.0 | 0.00 | 0.73 | 0.73 | 89 | 1011.2 |
| 20260904235318 | 68 | 271 | 0.0 | 0.0 | 0.00 | 0.73 | 0.73 | 88 | 1011.1 |
| 20260904234327 | 69 | 271 | 0.0 | 0.0 | 0.00 | 0.73 | 0.73 | 87 | 1011.0 |
| 20260904233334 | 69 | 271 | 0.0 | 0.0 | 0.00 | 0.73 | 0.73 | 86 | 1011.0 |
| 20260904232320 | 70 | 271 | 0.0 | 0.0 | 0.00 | 0.73 | 0.73 | 85 | 1011.0 |
| 20260904231328 | 72 | 271 | 0.0 | 0.0 | 0.00 | 0.73 | 0.73 | 84 | 1011.0 |
| 20260904230337 | 73 | 271 | 0.0 | 0.0 | 0.00 | 0.73 | 0.73 | 83 | 1011.0 |
| 20260904225323 | 74 | 271 | 0.0 | 0.0 | 0.00 | 0.73 | 0.73 | 80 | 1011.0 |
| 20260904224312 | 76 | 271 | 0.0 | 0.0 | 0.00 | 0.73 | 0.73 | 78 | 1011.0 |
| 20260904223324 | 78 | 271 | 0.0 | 0.0 | 0.00 | 0.73 | 0.73 | 77 | 1011.1 |
| 20260904222331 | 77 | 271 | 0.0 | 0.0 | 0.00 | 0.73 | 0.73 | 73 | 1011.0 |
| 20260904221317 | 78 | 271 | 0.0 | 0.0 | 0.00 | 0.73 | 0.73 | 71 | 1011.0 |
| 20260904220335 | 78 | 316 | 0.0 | 1.0 | 0.00 | 0.73 | 0.73 | 69 | 1011.0 |
| 20260904215323 | 79 | 11 | 0.0 | 1.0 | 0.00 | 0.73 | 0.73 | 66 | 1011.0 |
| 20260904214331 | 79 | 341 | 0.0 | 2.0 | 0.00 | 0.73 | 0.73 | 69 | 1011.0 |
| 20260904213338 | 79 | 11 | 1.0 | 2.0 | 0.00 | 0.73 | 0.73 | 60 | 1011.0 |
| 20260904212350 | 79 | 8 | 1.0 | 4.0 | 0.00 | 0.73 | 0.73 | 60 | 1011.0 |
| 20260904211337 | 80 | 334 | 0.0 | 2.0 | 0.00 | 0.73 | 0.73 | 62 | 1010.9 |
| 20260904210326 | 80 | 322 | 0.0 | 3.0 | 0.00 | 0.73 | 0.73 | 61 | 1011.1 |
| 20260904205336 | 80 | 14 | 1.0 | 2.0 | 0.00 | 0.73 | 0.73 | 59 | 1011.1 |
| 20260904204324 | 81 | 244 | 0.0 | 3.0 | 0.00 | 0.73 | 0.73 | 63 | 1011.2 |
| 20260904203329 | 81 | 278 | 0.0 | 2.0 | 0.00 | 0.73 | 0.73 | 60 | 1011.0 |
| 20260904202317 | 81 | 300 | 0.0 | 5.0 | 0.00 | 0.73 | 0.73 | 60 | 1011.1 |
| 20260904201330 | 80 | 8 | 0.0 | 3.0 | 0.00 | 0.73 | 0.73 | 61 | 1011.0 |
| 20260904200317 | 80 | 354 | 1.0 | 6.0 | 0.00 | 0.73 | 0.73 | 61 | 1011.1 |
| 20260904195334 | 79 | 285 | 1.0 | 5.0 | 0.00 | 0.73 | 0.73 | 60 | 1011.0 |
| 20260904194330 | 79 | 288 | 1.0 | 5.0 | 0.00 | 0.73 | 0.73 | 62 | 1011.1 |
| 20260904193315 | 79 | 21 | 2.0 | 4.0 | 0.00 | 0.73 | 0.73 | 60 | 1011.1 |
| 20260904192324 | 78 | 288 | 2.0 | 4.0 | 0.00 | 0.73 | 0.73 | 63 | 1011.1 |
| 20260904191313 | 77 | 274 | 0.0 | 3.0 | 0.00 | 0.73 | 0.73 | 66 | 1011.3 |
| 20260904190321 | 76 | 273 | 0.0 | 1.0 | 0.00 | 0.73 | 0.73 | 72 | 1011.5 |
| 20260904185314 | 76 | 312 | 0.0 | 0.0 | 0.00 | 0.73 | 0.73 | 74 | 1011.4 |
| 20260904184323 | 78 | 316 | 0.0 | 1.0 | 0.00 | 0.73 | 0.73 | 73 | 1011.5 |
| 20260904183312 | 78 | 285 | 0.0 | 3.0 | 0.00 | 0.73 | 0.73 | 64 | 1011.6 |
| 20260904182347 | 79 | 211 | 1.0 | 4.0 | 0.00 | 0.73 | 0.73 | 63 | 1011.5 |
| 20260904181314 | 79 | 319 | 0.0 | 5.0 | 0.00 | 0.73 | 0.73 | 64 | 1011.4 |
| 20260904180329 | 78 | 327 | 1.0 | 5.0 | 0.00 | 0.73 | 0.73 | 65 | 1011.4 |
| 20260904175316 | 78 | 259 | 0.0 | 3.0 | 0.00 | 0.73 | 0.73 | 65 | 1011.6 |
| 20260904174352 | 79 | 257 | 1.0 | 4.0 | 0.00 | 0.73 | 0.73 | 62 | 1011.4 |
| 20260904173319 | 79 | 283 | 1.0 | 4.0 | 0.00 | 0.73 | 0.73 | 62 | 1011.3 |
| 20260904172335 | 79 | 255 | 0.0 | 3.0 | 0.00 | 0.73 | 0.73 | 63 | 1011.3 |
| 20260904171324 | 78 | 278 | 0.0 | 3.0 | 0.00 | 0.73 | 0.73 | 65 | 1011.3 |
| 20260904170314 | 78 | 294 | 2.0 | 5.0 | 0.00 | 0.73 | 0.73 | 63 | 1011.5 |
| 20260904165322 | 78 | 316 | 1.0 | 7.0 | 0.00 | 0.73 | 0.73 | 68 | 1011.8 |
| 20260904164338 | 78 | 236 | 1.0 | 4.0 | 0.00 | 0.73 | 0.73 | 65 | 1011.9 |
| 20260904163328 | 77 | 204 | 1.0 | 3.0 | 0.00 | 0.73 | 0.73 | 65 | 1012.0 |
| 20260904162316 | 77 | 198 | 0.0 | 4.0 | 0.00 | 0.73 | 0.73 | 74 | 1011.8 |
| 20260904161332 | 77 | 63 | 1.0 | 5.0 | 0.00 | 0.73 | 0.73 | 68 | 1012.0 |
| 20260904160325 | 76 | 356 | 2.0 | 5.0 | 0.00 | 0.73 | 0.73 | 68 | 1012.0 |
| 20260904155322 | 75 | 357 | 2.0 | 7.0 | 0.00 | 0.73 | 0.73 | 72 | 1012.2 |
| 20260904154313 | 75 | 255 | 1.0 | 4.0 | 0.00 | 0.73 | 0.73 | 78 | 1012.2 |
| 20260904153333 | 75 | 240 | 0.0 | 3.0 | 0.00 | 0.73 | 0.73 | 77 | 1012.4 |
| 20260904152326 | 74 | 273 | 0.0 | 2.0 | 0.00 | 0.73 | 0.73 | 81 | 1012.4 |
| 20260904151317 | 74 | 160 | 0.0 | 4.0 | 0.00 | 0.73 | 0.73 | 81 | 1012.5 |
| 20260904150327 | 74 | 289 | 1.0 | 5.0 | 0.00 | 0.73 | 0.73 | 78 | 1012.5 |
| 20260904145320 | 73 | 288 | 1.0 | 4.0 | 0.00 | 0.73 | 0.73 | 85 | 1012.4 |
| 20260904144319 | 73 | 324 | 0.0 | 4.0 | 0.00 | 0.73 | 0.73 | 88 | 1012.4 |
| 20260904143330 | 73 | 288 | 0.0 | 3.0 | 0.00 | 0.73 | 0.73 | 88 | 1012.4 |
| 20260904142351 | 73 | 34 | 1.0 | 4.0 | 0.00 | 0.73 | 0.73 | 90 | 1012.5 |
| 20260904141324 | 72 | 269 | 0.0 | 2.0 | 0.00 | 0.73 | 0.73 | 92 | 1012.4 |
| 20260904140316 | 71 | 266 | 0.0 | 2.0 | 0.00 | 0.73 | 0.73 | 93 | 1012.2 |
| 20260904135358 | 71 | 309 | 0.0 | 2.0 | 0.00 | 0.73 | 0.73 | 95 | 1012.3 |
| 20260904134329 | 70 | 271 | 1.0 | 3.0 | 0.00 | 0.73 | 0.73 | 98 | 1012.2 |
| 20260904133321 | 70 | 284 | 0.0 | 1.0 | 0.00 | 0.73 | 0.73 | 98 | 1012.3 |
| 20260904132317 | 69 | 323 | 0.0 | 3.0 | 0.00 | 0.73 | 0.73 | 98 | 1012.3 |
| 20260904131336 | 69 | 360 | 0.0 | 1.0 | 0.00 | 0.73 | 0.73 | 98 | 1012.1 |
| 20260904130327 | 69 | 276 | 0.0 | 0.0 | 0.00 | 0.73 | 0.73 | 98 | 1012.2 |
| 20260904125322 | 69 | 276 | 0.0 | 0.0 | 0.00 | 0.73 | 0.73 | 98 | 1012.2 |
| 20260904124315 | 69 | 276 | 0.0 | 0.0 | 0.00 | 0.73 | 0.73 | 98 | 1012.0 |
| 20260904123327 | 69 | 276 | 0.0 | 0.0 | 0.00 | 0.73 | 0.73 | 98 | 1012.0 |
| 20260904122323 | 68 | 276 | 0.0 | 0.0 | 0.00 | 0.73 | 0.73 | 98 | 1012.0 |
| 20260904121312 | 68 | 276 | 0.0 | 0.0 | 0.00 | 0.73 | 0.73 | 98 | 1012.0 |
| 20260904120330 | 68 | 276 | 0.0 | 0.0 | 0.00 | 0.73 | 0.73 | 98 | 1012.1 |
| 20260904115324 | 68 | 276 | 0.0 | 0.0 | 0.00 | 0.73 | 0.73 | 98 | 1012.2 |
| 20260904114318 | 68 | 276 | 0.0 | 0.0 | 0.00 | 0.73 | 0.73 | 98 | 1012.1 |
| 20260904113340 | 68 | 276 | 0.0 | 0.0 | 0.00 | 0.73 | 0.73 | 98 | 1011.8 |
| 20260904112340 | 68 | 276 | 0.0 | 0.0 | 0.00 | 0.73 | 0.73 | 98 | 1011.7 |
| 20260904111342 | 68 | 276 | 0.0 | 0.0 | 0.00 | 0.73 | 0.73 | 98 | 1011.6 |
| 20260904110316 | 68 | 276 | 0.0 | 0.0 | 0.00 | 0.73 | 0.73 | 97 | 1011.5 |
| 20260904105311 | 68 | 276 | 0.0 | 0.0 | 0.00 | 0.73 | 0.73 | 97 | 1011.5 |
| 20260904104329 | 68 | 276 | 0.0 | 0.0 | 0.00 | 0.73 | 0.73 | 97 | 1011.4 |
| 20260904103325 | 68 | 276 | 0.0 | 0.0 | 0.00 | 0.73 | 0.73 | 97 | 1011.3 |
| 20260904102334 | 68 | 276 | 0.0 | 0.0 | 0.00 | 0.73 | 0.73 | 97 | 1011.3 |
| 20260904101328 | 68 | 276 | 0.0 | 0.0 | 0.00 | 0.73 | 0.73 | 97 | 1011.2 |
| 20260904100318 | 68 | 276 | 0.0 | 0.0 | 0.00 | 0.73 | 0.73 | 97 | 1011.3 |
| 20260904095314 | 68 | 276 | 0.0 | 0.0 | 0.00 | 0.73 | 0.73 | 97 | 1011.1 |
| 20260904094335 | 69 | 276 | 0.0 | 1.0 | 0.00 | 0.73 | 0.73 | 98 | 1011.1 |
| 20260904093329 | 68 | 276 | 0.0 | 0.0 | 0.00 | 0.73 | 0.73 | 97 | 1010.8 |
| 20260904092323 | 68 | 276 | 0.0 | 1.0 | 0.02 | 0.73 | 0.73 | 97 | 1011.1 |
| 20260904091337 | 68 | 276 | 0.0 | 0.0 | 0.04 | 0.73 | 0.73 | 97 | 1011.0 |